GFTC LEAL-LEAL

Flight info

Callsign GFTC
Flight time N/A
Altitude 43000
Route ASTRO L150 CJN/N0430F140 N733 VLC
Aircraft C750/M-SBDE3FGHRWXY/S

Departure

Time 2026-04-29 13:43
Airport Alicante-Elche Miguel Hernández Airport (LEAL)

Arrival

Time N/A
Airport Alicante-Elche Miguel Hernández Airport (LEAL)
Time Latitude Longitude Altitude Speed Heading
2026-04-29 13:09 38.28422 -0.55525 92 ft 0 kts 101°
2026-04-29 13:10 38.28487 -0.55923 98 ft 0 kts 64°
2026-04-29 13:36 38.28492 -0.55914 98 ft 1 kts 38°
2026-04-29 13:37 38.28519 -0.55912 96 ft 6 kts 358°
2026-04-29 13:37 38.28544 -0.55925 96 ft 3 kts 300°
2026-04-29 13:37 38.28551 -0.55964 96 ft 7 kts 277°
2026-04-29 13:37 38.28539 -0.56006 97 ft 4 kts 220°
2026-04-29 13:38 38.28521 -0.56014 98 ft 3 kts 193°
2026-04-29 13:38 38.28504 -0.56018 99 ft 2 kts 190°
2026-04-29 13:38 38.28494 -0.56020 99 ft 1 kts 189°
2026-04-29 13:38 38.28476 -0.56024 101 ft 4 kts 189°
2026-04-29 13:39 38.28438 -0.56038 104 ft 7 kts 213°
2026-04-29 13:39 38.28435 -0.56100 105 ft 11 kts 280°
2026-04-29 13:39 38.28453 -0.56231 105 ft 19 kts 280°
2026-04-29 13:39 38.28476 -0.56400 111 ft 17 kts 280°
2026-04-29 13:40 38.28494 -0.56531 115 ft 13 kts 280°
2026-04-29 13:40 38.28509 -0.56637 117 ft 11 kts 280°
2026-04-29 13:40 38.28523 -0.56739 120 ft 12 kts 280°
2026-04-29 13:40 38.28537 -0.56839 125 ft 12 kts 280°
2026-04-29 13:41 38.28554 -0.56955 131 ft 15 kts 280°
2026-04-29 13:41 38.28576 -0.57110 137 ft 21 kts 280°
2026-04-29 13:41 38.28601 -0.57301 145 ft 21 kts 279°
2026-04-29 13:41 38.28569 -0.57427 150 ft 13 kts 192°
2026-04-29 13:42 38.28478 -0.57442 152 ft 15 kts 175°
2026-04-29 13:42 38.28423 -0.57289 144 ft 37 kts 100°
2026-04-29 13:42 38.28314 -0.56506 113 ft 135 kts 100°
2026-04-29 13:42 38.28140 -0.55203 399 ft 162 kts 100°
2026-04-29 13:43 38.27920 -0.53661 635 ft 191 kts 103°
2026-04-29 13:43 38.27606 -0.51928 1026 ft 211 kts 103°
2026-04-29 13:43 38.27299 -0.50028 1494 ft 226 kts 101°
2026-04-29 13:43 38.26998 -0.48022 2029 ft 235 kts 101°
2026-04-29 13:44 38.26685 -0.45959 2585 ft 240 kts 101°
2026-04-29 13:44 38.26362 -0.43860 3149 ft 243 kts 102°
2026-04-29 13:44 38.26034 -0.41736 3713 ft 247 kts 102°
2026-04-29 13:44 38.25702 -0.39583 4280 ft 249 kts 102°
2026-04-29 13:45 38.25364 -0.37397 4830 ft 254 kts 102°
2026-04-29 13:45 38.25024 -0.35192 5355 ft 255 kts 102°
2026-04-29 13:45 38.24500 -0.33042 5795 ft 258 kts 120°
2026-04-29 13:45 38.23220 -0.31492 6180 ft 256 kts 150°
2026-04-29 13:46 38.21533 -0.30935 6596 ft 257 kts 180°
2026-04-29 13:46 38.19822 -0.31516 7042 ft 258 kts 210°
2026-04-29 13:46 38.18559 -0.33112 7502 ft 260 kts 239°
2026-04-29 13:46 38.18091 -0.35322 7972 ft 263 kts 269°
2026-04-29 13:47 38.18555 -0.37560 8464 ft 265 kts 295°
2026-04-29 13:47 38.19427 -0.39635 9088 ft 268 kts 298°
2026-04-29 13:47 38.20339 -0.41719 9705 ft 271 kts 298°
2026-04-29 13:47 38.21244 -0.43838 10306 ft 274 kts 297°
2026-04-29 13:48 38.22150 -0.45983 10895 ft 277 kts 297°
2026-04-29 13:48 38.23072 -0.48154 11482 ft 280 kts 298°
2026-04-29 13:48 38.24005 -0.50348 12072 ft 283 kts 298°
2026-04-29 13:48 38.24946 -0.52566 12673 ft 286 kts 298°
2026-04-29 13:49 38.25896 -0.54808 13280 ft 289 kts 298°
2026-04-29 13:49 38.26961 -0.56994 13833 ft 295 kts 310°
2026-04-29 13:49 38.28580 -0.58629 14388 ft 300 kts 324°
2026-04-29 13:49 38.30305 -0.60143 15054 ft 302 kts 324°
2026-04-29 13:50 38.32026 -0.61700 15719 ft 305 kts 323°
2026-04-29 13:50 38.33753 -0.63283 16379 ft 307 kts 324°